TimeEST,TemperatureF,Dew PointF,Humidity,Sea Level PressureIn,VisibilityMPH,Wind Direction,Wind SpeedMPH,Gust SpeedMPH,PrecipitationIn,Events,Conditions,WindDirDegrees,DateUTC
12:53 AM,39.9,30.0,68,30.08,10.0,SW,21.9,32.2,N/A,,Clear,230,2013-12-28 05:53:00
1:53 AM,39.0,30.0,70,30.09,10.0,WSW,17.3,34.5,N/A,,Clear,240,2013-12-28 06:53:00
2:53 AM,37.9,30.9,76,30.09,10.0,SW,17.3,-,N/A,,Clear,230,2013-12-28 07:53:00
3:53 AM,37.0,30.9,79,30.10,10.0,WSW,13.8,-,N/A,,Clear,250,2013-12-28 08:53:00
4:53 AM,36.0,30.9,82,30.09,10.0,SW,10.4,-,N/A,,Clear,230,2013-12-28 09:53:00
5:53 AM,36.0,30.9,82,30.10,10.0,SW,11.5,-,N/A,,Clear,230,2013-12-28 10:53:00
6:53 AM,37.0,30.9,79,30.10,10.0,SW,12.7,-,N/A,,Clear,230,2013-12-28 11:53:00
7:53 AM,37.0,30.9,79,30.11,10.0,SW,11.5,19.6,N/A,,Clear,220,2013-12-28 12:53:00
8:53 AM,37.0,30.9,79,30.11,10.0,SW,9.2,-,N/A,,Clear,220,2013-12-28 13:53:00
9:53 AM,37.0,30.0,76,30.09,10.0,South,5.8,-,N/A,,Clear,190,2013-12-28 14:53:00
10:53 AM,39.0,30.9,73,30.09,10.0,South,9.2,-,N/A,,Clear,190,2013-12-28 15:53:00
11:53 AM,39.9,32.0,73,30.07,10.0,South,10.4,-,N/A,,Clear,190,2013-12-28 16:53:00
12:53 PM,42.1,32.0,67,30.03,10.0,South,9.2,-,N/A,,Clear,180,2013-12-28 17:53:00
1:53 PM,44.1,32.0,63,29.99,10.0,South,13.8,17.3,N/A,,Clear,190,2013-12-28 18:53:00
2:53 PM,46.0,33.1,61,29.98,10.0,South,12.7,21.9,N/A,,Clear,190,2013-12-28 19:53:00
3:53 PM,46.9,34.0,61,29.97,10.0,SSW,9.2,-,N/A,,Clear,200,2013-12-28 20:53:00
4:53 PM,46.0,34.0,63,29.96,10.0,South,11.5,-,N/A,,Clear,190,2013-12-28 21:53:00
5:53 PM,44.1,34.0,68,29.95,10.0,South,9.2,18.4,N/A,,Clear,190,2013-12-28 22:53:00
6:53 PM,43.0,34.0,71,29.95,10.0,SSW,11.5,21.9,N/A,,Clear,200,2013-12-28 23:53:00
7:53 PM,42.1,34.0,73,29.93,10.0,South,11.5,-,N/A,,Clear,190,2013-12-29 00:53:00
8:53 PM,42.1,32.0,67,29.92,10.0,South,10.4,-,N/A,,Clear,190,2013-12-29 01:53:00
9:53 PM,41.0,30.9,67,29.90,10.0,South,10.4,-,N/A,,Clear,190,2013-12-29 02:53:00
10:53 PM,39.9,30.9,70,29.89,10.0,SSW,8.1,-,N/A,,Clear,200,2013-12-29 03:53:00
11:53 PM,37.9,30.0,73,29.88,10.0,South,6.9,-,N/A,,Clear,180,2013-12-29 04:53:00